Weather History for Reno - Stead, NV

Change the Weather History Date:

Thursday, November 3, 2011

  Actual Average (KRNO) Record (KRNO)
Temperature  
Mean Temperature 40 °F 47 °F  
Max Temperature 55 °F 61 °F 77 °F (1949)
Min Temperature 26 °F 34 °F 9 °F (1935)
Degree Days  
Heating Degree Days 24 18  
Month to date heating degree days 52  
Since 1 July heating degree days 488  
Cooling Degree Days 0 0  
Month to date cooling degree days 0  
Year to date cooling degree days 839  
Moisture  
Dew Point 16 °F    
Average Humidity 38    
Maximum Humidity 100    
Minimum Humidity 16    
Precipitation  
Precipitation 0.00 in 0.02 in 0.65 in (1960)
Month to date precipitation 0.06  
Year to date precipitation 5.61  
Snow  
Snow - 0.10 in 3.00 in (2004)
Month to date snowfall 0.2  
Since 1 July snowfall 0.6  
Since 1 September snowfall 0.6  
Snow Depth -    
Sea Level Pressure  
Sea Level Pressure 29.82 in    
Wind  
Wind Speed 11 mph ()    
Max Wind Speed 39 mph    
Max Gust Speed 60 mph    
Visibility 9.2 miles    
Events Rain , Snow    
T = Trace of Precipitation, MM = Missing Value Source: Averaged Metar Reports

Daily Weather History Graph

Daily Weather History Graph

Search for Another Location

Airport:

Trip Planner

Search our weather history database for the weather conditions in past years. The results will help you decide how hot, cold, wet, or windy it might be!

Date:

Astronomy

Nov. 03, 2011 Rise Set
Actual Time 7:30 AM PDT 5:55 PM PDT
Civil Twilight 7:01 AM PDT 6:23 PM PDT
Nautical Twilight 6:30 AM PDT 6:55 PM PDT
Astronomical Twilight 5:58 AM PDT 7:26 PM PDT
Moon 2:20 PM PDT (11/3) 12:48 AM PDT (11/3)
Length of Visible Light 11h 21m
Length of Day
10h 25m
First Quarter, 61% of the Moon is Illuminated
Nov 3
First Quarter
Nov 10
Full
Nov 18
Last Quarter
Nov 24
New
Dec 2
First Quarter

Hourly Weather History & Observations

Time (PDT) Temp. Windchill Dew Point Humidity Pressure Visibility Wind Dir Wind Speed Gust Speed Precip Events Conditions
12:15 AM 28.4 °F 24.6 °F 3.2 °F 34% 30.09 in 10.0 mi North 3.5 mph - N/A   Partly Cloudy
12:35 AM 26.6 °F 21.2 °F 3.2 °F 37% 30.09 in 10.0 mi SE 4.6 mph - N/A   Clear
12:55 AM 28.4 °F 22.2 °F 5.0 °F 37% 30.08 in 10.0 mi ESE 5.8 mph - N/A   Clear
1:15 AM 32.0 °F - 5.0 °F 32% 30.07 in 10.0 mi Calm Calm - N/A   Clear
1:35 AM 33.8 °F 29.6 °F 6.8 °F 32% 30.06 in 10.0 mi East 4.6 mph - N/A   Clear
1:55 AM 35.6 °F 31.7 °F 6.8 °F 30% 30.05 in 10.0 mi SSW 4.6 mph - N/A   Clear
2:15 AM 46.4 °F 40.4 °F 10.4 °F 23% 30.04 in 10.0 mi South 13.8 mph 20.7 mph N/A   Clear
2:55 AM 44.6 °F 39.7 °F 8.6 °F 23% 30.03 in 10.0 mi SSW 9.2 mph - N/A   Clear
3:35 AM 44.6 °F 42.2 °F 10.4 °F 25% 30.02 in 10.0 mi NW 4.6 mph - N/A   Clear
3:55 AM 46.4 °F - 10.4 °F 23% 30.02 in 10.0 mi Calm Calm - N/A   Clear
4:15 AM 46.4 °F 45.2 °F 12.2 °F 25% 30.00 in 10.0 mi NNW 3.5 mph - N/A   Clear
4:35 AM 46.4 °F 44.3 °F 12.2 °F 25% 29.99 in 10.0 mi North 4.6 mph - N/A   Clear
4:55 AM 41.0 °F 39.0 °F 12.2 °F 31% 29.98 in 10.0 mi North 3.5 mph - N/A   Clear
5:15 AM 44.6 °F 40.7 °F 14.0 °F 29% 29.98 in 10.0 mi WNW 6.9 mph - N/A   Clear
5:35 AM 44.6 °F 43.1 °F 14.0 °F 29% 29.98 in 10.0 mi West 3.5 mph - N/A   Clear
5:55 AM 44.6 °F - 15.8 °F 31% 29.98 in 10.0 mi Calm Calm - N/A   Clear
6:15 AM 44.6 °F - 15.8 °F 31% 29.97 in 10.0 mi Calm Calm - N/A   Clear
6:35 AM 42.8 °F 37.0 °F 17.6 °F 36% 29.96 in 10.0 mi West 10.4 mph - N/A   Clear
6:55 AM 42.8 °F 39.3 °F 17.6 °F 36% 29.95 in 10.0 mi West 5.8 mph 19.6 mph N/A   Clear
7:15 AM 42.8 °F 40.1 °F 15.8 °F 34% 29.94 in 10.0 mi SSW 4.6 mph - N/A   Clear
7:35 AM 44.6 °F 40.7 °F 14.0 °F 29% 29.94 in 10.0 mi West 6.9 mph - N/A   Clear
8:15 AM 48.2 °F - 14.0 °F 25% 29.93 in 10.0 mi SSW 11.5 mph 20.7 mph N/A   Clear
8:35 AM 48.2 °F - 14.0 °F 25% 29.92 in 10.0 mi SSW 15.0 mph 24.2 mph N/A   Clear
8:55 AM 50.0 °F - 14.0 °F 24% 29.90 in 10.0 mi South 23.0 mph 32.2 mph N/A   Clear
9:15 AM 50.0 °F - 12.2 °F 22% 29.89 in 10.0 mi SSW 19.6 mph 32.2 mph N/A   Clear
9:35 AM 51.8 °F - 12.2 °F 21% 29.87 in 10.0 mi SSW 21.9 mph 27.6 mph N/A   Clear
9:55 AM 53.6 °F - 12.2 °F 19% 29.86 in 10.0 mi SSW 13.8 mph 36.8 mph N/A   Clear
10:15 AM 53.6 °F - 10.4 °F 18% 29.84 in 10.0 mi SSW 26.5 mph 33.4 mph N/A   Clear
11:35 AM 53.6 °F - 8.6 °F 16% 29.81 in 10.0 mi SW 12.7 mph 29.9 mph N/A   Clear
12:15 PM 55.4 °F - 10.4 °F 17% 29.79 in 8.0 mi SW 21.9 mph 44.9 mph N/A   Clear
12:35 PM 55.4 °F - 10.4 °F 17% 29.77 in 7.0 mi SSW 21.9 mph 48.3 mph N/A   Clear
12:55 PM 55.4 °F - 10.4 °F 17% 29.75 in 10.0 mi SW 20.7 mph 43.7 mph N/A   Clear
1:15 PM 55.4 °F - 10.4 °F 17% 29.74 in 8.0 mi SW 36.8 mph 59.8 mph N/A   Clear
1:35 PM 55.4 °F - 14.0 °F 20% 29.73 in 10.0 mi SW 25.3 mph 34.5 mph N/A   Clear
1:55 PM 55.4 °F - 14.0 °F 20% 29.71 in 10.0 mi SSW 33.4 mph 50.6 mph N/A   Clear
2:15 PM 53.6 °F - 15.8 °F 22% 29.71 in 10.0 mi SW 17.3 mph 38.0 mph N/A   Clear
2:35 PM 53.6 °F - 15.8 °F 22% 29.69 in 8.0 mi SW 32.2 mph 40.3 mph N/A   Clear
2:55 PM 51.8 °F - 15.8 °F 24% 29.70 in 10.0 mi SSW 29.9 mph 47.2 mph N/A   Clear
3:15 PM 51.8 °F - 17.6 °F 26% 29.70 in 10.0 mi SW 28.8 mph 44.9 mph N/A   Clear
3:35 PM 50.0 °F - 17.6 °F 28% 29.69 in 10.0 mi SSW 19.6 mph 40.3 mph N/A   Clear
3:55 PM 50.0 °F - 17.6 °F 28% 29.67 in 10.0 mi SW 24.2 mph 39.1 mph N/A   Clear
4:15 PM 50.0 °F - 17.6 °F 28% 29.66 in 10.0 mi SSW 21.9 mph 39.1 mph N/A   Clear
4:35 PM 48.2 °F - 15.8 °F 27% 29.64 in 9.0 mi SW 29.9 mph 50.6 mph N/A   Clear
4:55 PM 48.2 °F - 15.8 °F 27% 29.63 in 9.0 mi SW 32.2 mph 52.9 mph N/A   Clear
5:15 PM 46.4 °F 36.1 °F 15.8 °F 29% 29.61 in 8.0 mi SW 38.0 mph 57.5 mph N/A   Clear
5:35 PM 44.6 °F 34.1 °F 15.8 °F 31% 29.61 in 9.0 mi SW 34.5 mph 55.2 mph N/A   Clear
5:55 PM 44.6 °F 34.2 °F 17.6 °F 34% 29.61 in 8.0 mi SW 33.4 mph 50.6 mph N/A   Clear
6:35 PM 44.6 °F 33.5 °F 19.4 °F 37% 29.60 in 10.0 mi SW 39.1 mph 49.5 mph N/A   Clear
6:55 PM 44.6 °F 33.8 °F 19.4 °F 37% 29.62 in 10.0 mi SW 36.8 mph 48.3 mph N/A   Clear
7:15 PM 42.8 °F 32.9 °F 21.2 °F 42% 29.63 in 10.0 mi WSW 26.5 mph 35.7 mph N/A   Partly Cloudy
7:35 PM 41.0 °F 30.9 °F 24.8 °F 53% 29.65 in 10.0 mi West 24.2 mph 29.9 mph N/A   Mostly Cloudy
7:50 PM 39.2 °F 29.3 °F 32.0 °F 75% 29.66 in 10.0 mi West 20.7 mph 33.4 mph N/A Rain Light Rain
8:15 PM 32.0 °F 22.5 °F 32.0 °F 100% 29.67 in 0.8 mi WNW 12.7 mph - N/A Snow Light Snow
8:35 PM 32.0 °F 23.0 °F 32.0 °F 100% 29.68 in 1.0 mi WNW 11.5 mph - N/A Snow Light Snow
8:55 PM 32.0 °F 23.0 °F 30.2 °F 93% 29.70 in 1.8 mi WNW 11.5 mph - N/A Snow Light Snow
9:35 PM 32.0 °F 28.7 °F 26.6 °F 80% 29.70 in 10.0 mi NNW 3.5 mph 19.6 mph N/A Rain Light Rain
9:50 PM 32.0 °F 24.2 °F 28.4 °F 87% 29.69 in 10.0 mi WNW 9.2 mph 18.4 mph N/A   Mostly Cloudy
10:15 PM 32.0 °F 24.2 °F 28.4 °F 87% 29.70 in 10.0 mi NW 9.2 mph - N/A   Overcast
10:55 PM 30.2 °F 24.3 °F 26.6 °F 86% 29.70 in 10.0 mi NNW 5.8 mph - N/A   Mostly Cloudy
11:10 PM 30.2 °F 24.3 °F 26.6 °F 86% 29.70 in 10.0 mi NW 5.8 mph - N/A   Mostly Cloudy
11:35 PM 30.2 °F 23.4 °F 28.4 °F 93% 29.69 in 3.0 mi NW 6.9 mph - N/A Snow Light Snow
11:50 PM 30.2 °F 26.7 °F 28.4 °F 93% 29.70 in 10.0 mi NNW 3.5 mph - N/A Rain Light Freezing Rain